DateTimeUTC,F1_A11,F1_S11,BsB_S11,BsG_S11,BsR_S11,BbsB_S11,BbsG_S11,BbsR_S11,BaB_A11,BaG_A11,BaR_A11,Tu_S11,T_S11,Uu_S11,U_S11,P_S11,T1_A11
2021-10-05T04:00:00Z,00540200,21000000,,,,,,,0001.61,0001.37,0000.64,16.0,23.2,,00.0,0667.6,30.5
2021-10-05T04:01:00Z,00540200,21000000,,,,,,,0000.72,0001.21,0000.83,16.0,23.2,,00.0,0667.6,30.5
2021-10-05T04:02:00Z,00540200,21000000,,,,,,,0001.35,0001.09,0001.13,15.9,23.2,,00.0,0667.7,30.6
2021-10-05T04:03:00Z,00540200,61000000,,,,,,,0000.60,0000.60,0000.08,15.9,23.2,,00.0,0667.7,30.6
2021-10-05T04:04:00Z,00540200,41000000,0000.46,0000.12,0000.41,-000.02,0000.27,0000.09,0001.37,0001.51,0000.97,16.3,23.1,,00.0,0668.6,30.6
2021-10-05T04:05:00Z,00540200,01000000,-000.26,0000.24,0000.23,-000.32,0000.41,0000.04,0000.58,0000.09,0000.56,16.4,23.0,,00.0,0668.6,30.6
2021-10-05T04:06:00Z,00540200,01000000,0000.37,0000.38,0000.16,0000.08,0000.12,0000.41,0000.82,0000.40,0000.85,16.4,23.0,,00.0,0668.6,30.6
2021-10-05T04:07:00Z,00540200,01000000,-000.13,0000.33,-000.00,-000.08,0000.15,0000.21,0001.00,0001.17,0000.37,16.5,23.0,,00.0,0668.6,30.6
2021-10-05T04:08:00Z,00540200,01000000,-000.04,-000.01,0000.19,0000.43,0000.29,0000.22,0000.87,0001.10,0001.10,16.5,23.0,,00.0,0668.6,30.6
2021-10-05T04:09:00Z,00540200,01000000,0000.09,0000.13,0000.23,-000.06,-000.06,-000.13,0000.94,0000.70,0000.28,16.6,23.0,,00.0,0668.6,30.6
2021-10-05T04:10:00Z,00540200,01000000,-000.01,0000.06,0000.19,0000.29,-000.04,0000.26,0000.69,0000.39,0000.55,16.6,23.1,,00.0,0668.7,30.6
2021-10-05T04:11:00Z,00540200,01000000,0000.41,0000.53,0000.30,0000.23,0000.07,0000.15,0000.17,0000.11,0000.39,16.5,23.1,,00.0,0668.6,30.6
2021-10-05T04:12:00Z,00540200,01000000,0000.20,0000.22,-000.20,0000.01,0000.30,0000.18,0000.46,0000.81,0000.06,16.5,23.1,,00.0,0668.6,30.6
2021-10-05T04:13:00Z,00540200,01000000,0000.03,0000.56,0000.27,-000.38,0000.14,0000.19,0000.50,0000.39,0000.34,16.4,23.0,,00.0,0668.6,30.6
2021-10-05T04:14:00Z,00540200,01000000,0000.05,0000.46,0000.18,-000.14,0000.58,0000.13,0000.79,0000.49,0000.79,16.3,23.0,,00.0,0668.6,30.6
2021-10-05T04:15:00Z,00540200,01000000,0000.29,0000.01,-000.07,-000.13,0000.44,0000.06,0000.48,0000.31,0000.04,16.3,22.9,,00.0,0668.6,30.6
2021-10-05T04:16:00Z,00540200,01000000,0000.04,0000.14,-000.14,0000.23,0000.21,0000.18,0000.64,0000.66,0000.34,16.3,22.9,,00.0,0668.6,30.6
2021-10-05T04:17:00Z,00540200,01000000,-000.32,0000.01,-000.03,0000.26,-000.03,0000.07,0000.42,0000.60,0000.69,16.3,22.9,,00.0,0668.6,30.6
2021-10-05T04:18:00Z,00540200,01000000,0000.18,-000.03,0000.10,0000.60,0000.07,-000.22,0000.82,0000.59,-000.02,16.4,22.9,,00.0,0668.6,30.6
2021-10-05T04:19:00Z,00540200,01000000,0000.05,-000.09,0000.03,-000.92,0000.21,-000.20,0000.63,0000.86,0001.29,16.4,23.0,,00.0,0668.6,30.6
2021-10-05T04:20:00Z,00540200,01000000,-000.15,0000.16,0000.10,-000.23,0000.08,0000.07,0000.50,0000.33,0000.14,16.5,23.0,,00.0,0668.6,30.6
2021-10-05T04:21:00Z,00540200,01000000,0000.06,0000.13,0000.14,-000.39,0000.12,-000.18,0000.46,0000.44,0000.31,16.5,23.0,,00.0,0668.6,30.6
2021-10-05T04:22:00Z,00540200,01000000,0000.34,-000.02,0000.29,0000.01,0000.28,0000.54,0001.00,0000.80,0000.43,16.6,23.0,,00.0,0668.6,30.6
2021-10-05T04:23:00Z,00540200,01000000,0000.00,0000.03,0000.05,-000.08,-000.03,0000.45,0000.25,0000.53,0000.40,16.6,23.0,,00.0,0668.6,30.6
2021-10-05T04:24:00Z,00540200,01000000,0000.56,0000.20,0000.16,0000.06,-000.00,0000.31,0000.45,0000.39,0000.24,16.6,23.0,,00.0,0668.6,30.6
2021-10-05T04:25:00Z,00540200,01000000,0000.07,0000.21,0000.19,-000.04,-000.25,0000.38,0000.50,0000.34,0000.74,16.5,23.1,,00.0,0668.6,30.6
2021-10-05T04:26:00Z,00540200,01000000,0000.04,0000.18,0000.06,-000.21,0000.08,-000.20,0000.41,0000.58,0000.22,16.5,23.0,,00.0,0668.6,30.6
2021-10-05T04:27:00Z,00540200,01000000,0000.06,0000.27,0000.38,0000.08,0000.11,0000.19,0000.85,0000.42,0000.26,16.4,23.0,,00.0,0668.5,30.6
2021-10-05T04:28:00Z,00540200,01000000,0000.51,0000.09,-000.15,-000.04,0000.27,0000.15,0000.30,0000.60,0000.30,16.3,23.0,,00.0,0668.5,30.6
2021-10-05T04:29:00Z,00540200,01000000,0000.64,0000.05,0000.29,-000.22,0000.21,0000.08,0000.77,0000.84,0000.60,16.2,22.9,,00.0,0668.5,30.5
2021-10-05T04:30:00Z,00540200,01000000,-000.08,0000.03,0000.05,0000.67,0000.09,0000.10,0000.92,0000.62,0000.68,16.2,22.9,,00.0,0668.5,30.5
2021-10-05T04:31:00Z,00540200,01000000,-000.19,-000.07,0000.05,-000.24,-000.04,0000.05,0000.89,0000.92,0000.61,16.2,22.9,,00.0,0668.5,30.5
2021-10-05T04:32:00Z,00540200,01000000,0000.84,0000.25,-000.01,0000.20,0000.23,0000.09,0000.16,0000.46,0000.42,16.2,22.9,,00.0,0668.5,30.5
2021-10-05T04:33:00Z,00540200,01000000,0000.13,0000.37,0000.19,-000.02,-000.15,0000.15,0001.01,0000.64,0000.28,16.3,22.9,,00.0,0668.5,30.6
2021-10-05T04:34:00Z,00540200,01000000,0000.61,-000.20,0000.15,-000.22,0000.33,0000.30,0000.31,0000.34,0000.35,16.3,22.9,,00.0,0668.5,30.6
2021-10-05T04:35:00Z,00540200,01000000,-000.24,-000.06,0000.19,-000.19,-000.00,0000.43,0000.69,0000.59,0000.31,16.4,22.9,,00.0,0668.5,30.6
2021-10-05T04:36:00Z,00540200,01000000,0000.12,-000.18,0000.37,0000.22,0000.04,0000.15,0000.71,0000.42,0000.33,16.4,22.9,,00.0,0668.5,30.6
2021-10-05T04:37:00Z,00540200,01000000,0000.29,0000.24,0000.00,0000.08,0000.24,0000.14,0000.74,0000.81,0000.85,16.5,22.9,,00.0,0668.5,30.6
2021-10-05T04:38:00Z,00540200,01000000,0000.70,0000.16,0000.31,-000.27,-000.09,0000.06,0000.33,0000.49,0000.60,16.5,23.0,,00.0,0668.6,30.6
2021-10-05T04:39:00Z,00540200,01000000,0000.20,0000.05,0000.59,-000.31,0000.08,0000.24,0003.12,0002.79,0002.16,16.6,23.0,,00.0,0668.6,30.6
2021-10-05T04:40:00Z,00540200,01000000,0001.12,0000.81,0000.54,-000.38,0000.27,0000.29,0009.02,0008.00,0007.06,16.6,23.0,,00.0,0668.6,30.6
2021-10-05T04:41:00Z,00540200,01000000,0004.38,0003.72,0002.37,0000.55,0001.08,0000.91,0040.76,0038.85,0032.03,16.5,23.0,,00.0,0668.5,30.6
2021-10-05T04:42:00Z,00540200,01000000,0008.26,0005.81,0003.80,0001.62,0001.63,0001.38,0068.98,0064.70,0054.22,16.4,23.0,,00.0,0668.5,30.6
2021-10-05T04:43:00Z,00540200,01000000,0010.74,0007.96,0005.11,0001.99,0001.98,0001.48,0091.19,0086.40,0071.26,16.3,22.9,,00.0,0668.5,30.6
2021-10-05T04:44:00Z,00540200,01010000,0012.18,0008.76,0005.49,0002.52,0002.26,0001.67,0106.78,0099.70,0083.92,16.2,22.9,,00.0,0668.5,30.5
2021-10-05T04:45:00Z,00540200,01000000,0010.66,0008.04,0004.74,0002.47,0001.93,0001.55,0094.10,0088.76,0073.64,16.2,22.8,,00.0,0668.6,30.5
2021-10-05T04:46:00Z,00540200,01000000,0011.12,0008.67,0005.60,0001.80,0002.34,0001.62,0105.65,0099.70,0083.39,16.2,22.8,,00.0,0668.6,30.5
2021-10-05T04:47:00Z,00540200,01000000,0009.03,0006.39,0004.23,0001.54,0001.49,0001.65,0081.24,0076.34,0063.68,16.3,22.8,,00.0,0668.6,30.5
2021-10-05T04:48:00Z,00540200,01000000,0010.48,0007.61,0004.96,0002.09,0002.22,0001.81,0092.16,0086.44,0072.55,16.3,22.8,,00.0,0668.6,30.6
2021-10-05T04:49:00Z,00540200,01000000,0013.73,0009.83,0006.39,0001.95,0002.17,0001.62,0113.08,0106.89,0089.49,16.4,22.8,,00.0,0668.6,30.6
2021-10-05T04:50:00Z,00540200,01000000,0016.12,0012.28,0008.29,0003.43,0003.05,0002.22,0136.47,0128.65,0108.07,16.4,22.9,,00.0,0668.7,30.6
2021-10-05T04:51:00Z,00540200,01000000,0018.78,0013.97,0008.98,0003.79,0003.22,0002.65,0154.67,0146.12,0122.80,16.4,22.9,,00.0,0668.6,30.6
2021-10-05T04:52:00Z,00540200,01000000,0020.14,0015.83,0010.32,0004.51,0003.43,0002.59,0172.52,0162.56,0136.72,16.5,22.9,,00.0,0668.6,30.6
2021-10-05T04:53:00Z,00540200,01000000,0019.14,0014.54,0009.19,0003.84,0003.40,0002.66,0160.32,0152.41,0128.36,16.6,22.9,,00.0,0668.7,30.6
2021-10-05T04:54:00Z,00540200,01000000,0013.51,0009.97,0006.60,0002.80,0002.57,0002.16,0116.31,0109.77,0093.03,16.6,22.9,,00.0,0668.7,30.6
2021-10-05T04:55:00Z,00540200,01000000,0008.36,0006.65,0004.63,0001.88,0001.49,0001.29,0072.72,0069.04,0058.15,16.6,23.0,,00.0,0668.7,30.6
2021-10-05T04:56:00Z,00540200,01000000,0007.77,0006.06,0003.44,0001.85,0001.51,0001.66,0065.10,0061.48,0051.40,16.6,23.0,,00.0,0668.7,30.6
2021-10-05T04:57:00Z,00540200,41000000,,,,,,,0022.71,0021.39,0018.34,16.6,23.0,,00.0,0668.8,30.6
2021-10-05T04:58:00Z,00540200,61000000,,,,,,,0000.87,0000.93,0000.41,16.1,23.1,,00.0,0667.7,30.6
2021-10-05T04:59:00Z,00540200,21000000,,,,,,,0001.04,0001.30,0001.48,16.1,23.2,,00.0,0667.6,30.6
